Location: Unspecified
(0.0000°N, 0.0000°E)
Time: 16:52:32
(UTC+00:00)

Envisat - Pass Details

Date: 27 September 2022
Orbit: 764 x 765 km, 98.2° (Epoch: 26 September)

Event Time Altitude Azimuth Distance (km) Brightness Sun altitude
Rises 02:56:10 0° 44° (NE) 3,215 6.7 -43.7°
Reaches altitude 10° 02:59:21 10° 66° (ENE) 2,293 6.0 -42.9°
Enters shadow 03:00:40 14° 80° (E) 2,041 5.7 -42.6°
